Time,TemperatureF,DewpointF,PressureIn,WindDirection,WindDirectionDegrees,WindSpeedMPH,WindSpeedGustMPH,Humidity,HourlyPrecipIn,Conditions,Clouds,dailyrainin,SolarRadiationWatts/m^2,SoftwareType,DateUTC
2013-01-26 00:01:00,69.0,61.0,-100.00,ENE,62,5.0,11.0,75,0.00,,,0.00,0.000000,,2013-01-26 10:01:00,
2013-01-26 00:11:00,69.0,61.0,-100.00,ENE,62,5.0,11.0,75,0.00,,,0.00,0.000000,,2013-01-26 10:11:00,
2013-01-26 00:21:00,69.0,61.0,-100.00,ENE,62,5.0,11.0,75,0.00,,,0.00,0.000000,,2013-01-26 10:21:00,
2013-01-26 00:31:00,69.0,61.0,-100.00,ENE,62,5.0,11.0,75,0.00,,,0.00,0.000000,,2013-01-26 10:31:00,
2013-01-26 00:52:00,70.0,61.0,-100.00,NE,53,5.0,11.0,74,0.00,,,0.00,0.000000,,2013-01-26 10:52:00,
2013-01-26 01:01:00,70.0,61.0,-100.00,NE,53,5.0,11.0,74,0.00,,,0.00,0.000000,,2013-01-26 11:01:00,
2013-01-26 01:12:00,70.0,61.0,-100.00,NE,53,5.0,11.0,74,0.00,,,0.00,0.000000,,2013-01-26 11:12:00,
2013-01-26 01:22:00,70.0,61.0,-100.00,NE,53,5.0,11.0,74,0.00,,,0.00,0.000000,,2013-01-26 11:22:00,
2013-01-26 01:32:00,70.0,61.0,-100.00,NE,53,5.0,11.0,74,0.00,,,0.00,0.000000,,2013-01-26 11:32:00,
2013-01-26 02:02:00,68.0,61.0,-100.00,NE,38,4.0,9.0,77,0.00,,,0.00,0.000000,,2013-01-26 12:02:00,
2013-01-26 02:12:00,68.0,61.0,-100.00,NE,38,4.0,9.0,77,0.00,,,0.00,0.000000,,2013-01-26 12:12:00,
2013-01-26 02:22:00,68.0,61.0,-100.00,NE,38,4.0,9.0,77,0.00,,,0.00,0.000000,,2013-01-26 12:22:00,
2013-01-26 02:33:00,68.0,61.0,-100.00,NE,38,4.0,9.0,77,0.00,,,0.00,0.000000,,2013-01-26 12:33:00,
2013-01-26 03:03:00,69.0,64.0,-100.00,NNE,26,4.0,9.0,84,0.00,,,0.00,0.000000,,2013-01-26 13:03:00,
2013-01-26 03:12:00,69.0,64.0,-100.00,NNE,26,4.0,9.0,84,0.00,,,0.00,0.000000,,2013-01-26 13:12:00,
2013-01-26 03:22:00,69.0,64.0,-100.00,NNE,26,4.0,9.0,84,0.00,,,0.00,0.000000,,2013-01-26 13:22:00,
2013-01-26 03:32:00,69.0,64.0,-100.00,NNE,26,4.0,9.0,84,0.00,,,0.00,0.000000,,2013-01-26 13:32:00,
2013-01-26 04:02:00,69.0,63.0,-100.00,NE,36,5.0,10.0,80,0.00,,,0.00,0.000000,,2013-01-26 14:02:00,
2013-01-26 04:11:00,69.0,63.0,-100.00,NE,36,5.0,10.0,80,0.00,,,0.00,0.000000,,2013-01-26 14:11:00,
2013-01-26 04:21:00,69.0,63.0,-100.00,NE,36,5.0,10.0,80,0.00,,,0.00,0.000000,,2013-01-26 14:21:00,
2013-01-26 04:31:00,69.0,63.0,-100.00,NE,36,5.0,10.0,80,0.00,,,0.00,0.000000,,2013-01-26 14:31:00,
2013-01-26 04:53:00,68.0,62.0,-100.00,NNE,21,3.0,8.0,80,0.00,,,0.00,0.000000,,2013-01-26 14:53:00,
2013-01-26 05:02:00,68.0,62.0,-100.00,NNE,21,3.0,8.0,80,0.00,,,0.00,0.000000,,2013-01-26 15:02:00,
2013-01-26 05:12:00,68.0,62.0,-100.00,NNE,21,3.0,8.0,80,0.00,,,0.00,0.000000,,2013-01-26 15:12:00,
2013-01-26 05:22:00,68.0,62.0,-100.00,NNE,21,3.0,8.0,80,0.00,,,0.00,0.000000,,2013-01-26 15:22:00,
2013-01-26 05:32:00,68.0,62.0,-100.00,NNE,21,3.0,8.0,80,0.00,,,0.00,0.000000,,2013-01-26 15:32:00,
2013-01-26 06:02:00,69.0,62.0,-100.00,NNE,27,3.0,7.0,79,0.00,,,0.00,0.000000,,2013-01-26 16:02:00,
2013-01-26 06:12:00,69.0,62.0,-100.00,NNE,27,3.0,7.0,79,0.00,,,0.00,0.000000,,2013-01-26 16:12:00,
2013-01-26 06:21:00,69.0,62.0,-100.00,NNE,27,3.0,7.0,79,0.00,,,0.00,0.000000,,2013-01-26 16:21:00,
2013-01-26 06:32:00,69.0,62.0,-100.00,NNE,27,3.0,7.0,79,0.00,,,0.00,0.000000,,2013-01-26 16:32:00,
2013-01-26 07:03:00,68.0,62.0,-100.00,NNE,28,3.0,8.0,80,0.00,,,0.00,0.000000,,2013-01-26 17:03:00,
2013-01-26 07:12:00,68.0,62.0,-100.00,NNE,28,3.0,8.0,80,0.00,,,0.00,0.000000,,2013-01-26 17:12:00,
2013-01-26 07:22:00,68.0,62.0,-100.00,NNE,28,3.0,8.0,80,0.00,,,0.00,0.000000,,2013-01-26 17:22:00,
2013-01-26 07:32:00,68.0,62.0,-100.00,NNE,28,3.0,8.0,80,0.00,,,0.00,0.000000,,2013-01-26 17:32:00,
2013-01-26 08:02:00,69.0,62.0,-100.00,NNE,26,4.0,7.0,78,0.00,,,0.00,5.000000,,2013-01-26 18:02:00,
2013-01-26 08:12:00,69.0,62.0,-100.00,NNE,26,4.0,7.0,78,0.00,,,0.00,5.000000,,2013-01-26 18:12:00,
2013-01-26 08:22:00,69.0,62.0,-100.00,NNE,26,4.0,7.0,78,0.00,,,0.00,5.000000,,2013-01-26 18:22:00,
2013-01-26 08:32:00,69.0,62.0,-100.00,NNE,26,4.0,7.0,78,0.00,,,0.00,5.000000,,2013-01-26 18:32:00,
2013-01-26 09:03:00,75.0,64.0,-100.00,ENE,66,5.0,9.0,69,0.00,,,0.00,168.000000,,2013-01-26 19:03:00,
2013-01-26 09:11:00,75.0,64.0,-100.00,ENE,66,5.0,9.0,69,0.00,,,0.00,168.000000,,2013-01-26 19:11:00,
2013-01-26 09:22:00,75.0,64.0,-100.00,ENE,66,5.0,9.0,69,0.00,,,0.00,168.000000,,2013-01-26 19:22:00,
2013-01-26 09:32:00,75.0,64.0,-100.00,ENE,66,5.0,9.0,69,0.00,,,0.00,168.000000,,2013-01-26 19:32:00,
2013-01-26 09:53:00,78.0,65.0,-100.00,East,87,6.0,9.0,64,0.00,,,0.00,435.000000,,2013-01-26 19:53:00,
2013-01-26 10:02:00,78.0,65.0,-100.00,East,87,6.0,9.0,64,0.00,,,0.00,435.000000,,2013-01-26 20:02:00,
2013-01-26 10:11:00,78.0,65.0,-100.00,East,87,6.0,9.0,64,0.00,,,0.00,435.000000,,2013-01-26 20:11:00,
2013-01-26 10:21:00,78.0,65.0,-100.00,East,87,6.0,9.0,64,0.00,,,0.00,435.000000,,2013-01-26 20:21:00,
2013-01-26 10:32:00,78.0,65.0,-100.00,East,87,6.0,9.0,64,0.00,,,0.00,435.000000,,2013-01-26 20:32:00,
2013-01-26 10:52:00,80.0,65.0,-100.00,ESE,111,8.0,12.0,61,0.00,,,0.00,605.000000,,2013-01-26 20:52:00,
2013-01-26 11:02:00,80.0,65.0,-100.00,ESE,111,8.0,12.0,61,0.00,,,0.00,605.000000,,2013-01-26 21:02:00,
2013-01-26 11:12:00,80.0,65.0,-100.00,ESE,111,8.0,12.0,61,0.00,,,0.00,605.000000,,2013-01-26 21:12:00,
2013-01-26 11:22:00,80.0,65.0,-100.00,ESE,111,8.0,12.0,61,0.00,,,0.00,605.000000,,2013-01-26 21:22:00,
2013-01-26 11:31:00,80.0,65.0,-100.00,ESE,111,8.0,12.0,61,0.00,,,0.00,605.000000,,2013-01-26 21:31:00,
2013-01-26 11:52:00,81.0,65.0,-100.00,SE,133,9.0,15.0,59,0.00,,,0.00,722.000000,,2013-01-26 21:52:00,
2013-01-26 12:01:00,81.0,65.0,-100.00,SE,133,9.0,15.0,59,0.00,,,0.00,722.000000,,2013-01-26 22:01:00,
2013-01-26 12:11:00,81.0,65.0,-100.00,SE,133,9.0,15.0,59,0.00,,,0.00,722.000000,,2013-01-26 22:11:00,
2013-01-26 12:21:00,81.0,65.0,-100.00,SE,133,9.0,15.0,59,0.00,,,0.00,722.000000,,2013-01-26 22:21:00,
2013-01-26 12:31:00,81.0,65.0,-100.00,SE,133,9.0,15.0,59,0.00,,,0.00,722.000000,,2013-01-26 22:31:00,
2013-01-26 12:52:00,82.0,65.0,-100.00,ESE,116,10.0,19.0,57,0.00,,,0.00,962.000000,,2013-01-26 22:52:00,
2013-01-26 13:01:00,82.0,65.0,-100.00,ESE,116,10.0,19.0,57,0.00,,,0.00,962.000000,,2013-01-26 23:01:00,
2013-01-26 13:11:00,82.0,65.0,-100.00,ESE,116,10.0,19.0,57,0.00,,,0.00,962.000000,,2013-01-26 23:11:00,
2013-01-26 13:21:00,82.0,65.0,-100.00,ESE,116,10.0,19.0,57,0.00,,,0.00,962.000000,,2013-01-26 23:21:00,
2013-01-26 13:32:00,82.0,65.0,-100.00,ESE,116,10.0,19.0,57,0.00,,,0.00,962.000000,,2013-01-26 23:32:00,
2013-01-26 14:02:00,81.0,61.0,-100.00,SE,126,9.0,17.0,50,0.00,,,0.00,971.000000,,2013-01-27 00:02:00,
2013-01-26 14:11:00,81.0,61.0,-100.00,SE,126,9.0,17.0,50,0.00,,,0.00,971.000000,,2013-01-27 00:11:00,
2013-01-26 14:21:00,81.0,61.0,-100.00,SE,126,9.0,17.0,50,0.00,,,0.00,971.000000,,2013-01-27 00:21:00,
2013-01-26 14:31:00,81.0,61.0,-100.00,SE,126,9.0,17.0,50,0.00,,,0.00,971.000000,,2013-01-27 00:31:00,
2013-01-26 15:01:00,76.0,64.0,-100.00,ESE,112,12.0,18.0,66,0.00,,,0.00,488.000000,,2013-01-27 01:01:00,
2013-01-26 15:11:00,76.0,64.0,-100.00,ESE,112,12.0,18.0,66,0.00,,,0.00,488.000000,,2013-01-27 01:11:00,
2013-01-26 15:22:00,76.0,64.0,-100.00,ESE,112,12.0,18.0,66,0.00,,,0.00,488.000000,,2013-01-27 01:22:00,
2013-01-26 15:32:00,76.0,64.0,-100.00,ESE,112,12.0,18.0,66,0.00,,,0.00,488.000000,,2013-01-27 01:32:00,
2013-01-26 15:52:00,72.0,69.0,-100.00,SSE,167,11.0,21.0,91,0.04,,,0.04,387.000000,,2013-01-27 01:52:00,
2013-01-26 16:01:00,72.0,69.0,-100.00,SSE,167,11.0,21.0,91,0.04,,,0.04,387.000000,,2013-01-27 02:01:00,
2013-01-26 16:11:00,72.0,69.0,-100.00,SSE,167,11.0,21.0,91,0.04,,,0.04,387.000000,,2013-01-27 02:11:00,
2013-01-26 16:21:00,72.0,69.0,-100.00,SSE,167,11.0,21.0,91,0.04,,,0.04,387.000000,,2013-01-27 02:21:00,
2013-01-26 16:31:00,72.0,69.0,-100.00,SSE,167,11.0,21.0,91,0.04,,,0.04,387.000000,,2013-01-27 02:31:00,
2013-01-26 17:01:00,68.0,67.0,-100.00,SSE,150,8.0,19.0,95,0.01,,,0.05,122.000000,,2013-01-27 03:01:00,
2013-01-26 17:11:00,68.0,67.0,-100.00,SSE,150,8.0,19.0,95,0.01,,,0.05,122.000000,,2013-01-27 03:11:00,
2013-01-26 17:21:00,68.0,67.0,-100.00,SSE,150,8.0,19.0,95,0.01,,,0.05,122.000000,,2013-01-27 03:21:00,
2013-01-26 17:31:00,68.0,67.0,-100.00,SSE,150,8.0,19.0,95,0.01,,,0.05,122.000000,,2013-01-27 03:31:00,
2013-01-26 18:01:00,67.0,66.0,-100.00,NNE,33,4.0,12.0,98,0.04,,,0.09,60.000000,,2013-01-27 04:01:00,
2013-01-26 18:11:00,67.0,66.0,-100.00,NNE,33,4.0,12.0,98,0.04,,,0.09,60.000000,,2013-01-27 04:11:00,
2013-01-26 18:21:00,67.0,66.0,-100.00,NNE,33,4.0,12.0,98,0.04,,,0.09,60.000000,,2013-01-27 04:21:00,
2013-01-26 18:31:00,67.0,66.0,-100.00,NNE,33,4.0,12.0,98,0.04,,,0.09,60.000000,,2013-01-27 04:31:00,
2013-01-26 18:52:00,68.0,66.0,-100.00,NE,36,5.0,11.0,94,0.00,,,0.09,18.000000,,2013-01-27 04:52:00,
2013-01-26 19:03:00,68.0,66.0,-100.00,NE,36,5.0,11.0,94,0.00,,,0.09,18.000000,,2013-01-27 05:03:00,
2013-01-26 19:12:00,68.0,66.0,-100.00,NE,36,5.0,11.0,94,0.00,,,0.09,18.000000,,2013-01-27 05:12:00,
2013-01-26 19:22:00,68.0,66.0,-100.00,NE,36,5.0,11.0,94,0.00,,,0.09,18.000000,,2013-01-27 05:22:00,
2013-01-26 19:31:00,68.0,66.0,-100.00,NE,36,5.0,11.0,94,0.00,,,0.09,18.000000,,2013-01-27 05:31:00,
2013-01-26 20:01:00,69.0,67.0,-100.00,ENE,71,7.0,10.0,93,0.00,,,0.09,0.000000,,2013-01-27 06:01:00,
2013-01-26 20:11:00,69.0,67.0,-100.00,ENE,71,7.0,10.0,93,0.00,,,0.09,0.000000,,2013-01-27 06:11:00,
2013-01-26 20:21:00,69.0,67.0,-100.00,ENE,71,7.0,10.0,93,0.00,,,0.09,0.000000,,2013-01-27 06:21:00,
2013-01-26 20:31:00,69.0,67.0,-100.00,ENE,71,7.0,10.0,93,0.00,,,0.09,0.000000,,2013-01-27 06:31:00,
2013-01-26 21:01:00,70.0,67.0,-100.00,ESE,102,4.0,8.0,91,0.00,,,0.09,0.000000,,2013-01-27 07:01:00,
2013-01-26 21:13:00,70.0,67.0,-100.00,ESE,102,4.0,8.0,91,0.00,,,0.09,0.000000,,2013-01-27 07:13:00,
2013-01-26 21:21:00,70.0,67.0,-100.00,ESE,102,4.0,8.0,91,0.00,,,0.09,0.000000,,2013-01-27 07:21:00,
2013-01-26 21:31:00,70.0,67.0,-100.00,ESE,102,4.0,8.0,91,0.00,,,0.09,0.000000,,2013-01-27 07:31:00,
2013-01-26 21:52:00,70.0,67.0,-100.00,ESE,110,7.0,12.0,90,0.00,,,0.09,0.000000,,2013-01-27 07:52:00,
2013-01-26 22:01:00,70.0,67.0,-100.00,ESE,110,7.0,12.0,90,0.00,,,0.09,0.000000,,2013-01-27 08:01:00,
2013-01-26 22:11:00,70.0,67.0,-100.00,ESE,110,7.0,12.0,90,0.00,,,0.09,0.000000,,2013-01-27 08:11:00,
2013-01-26 22:21:00,70.0,67.0,-100.00,ESE,110,7.0,12.0,90,0.00,,,0.09,0.000000,,2013-01-27 08:21:00,
2013-01-26 22:31:00,70.0,67.0,-100.00,ESE,110,7.0,12.0,90,0.00,,,0.09,0.000000,,2013-01-27 08:31:00,
2013-01-26 23:02:00,71.0,67.0,-100.00,SSE,150,5.0,10.0,86,0.00,,,0.09,0.000000,,2013-01-27 09:02:00,
2013-01-26 23:11:00,71.0,67.0,-100.00,SSE,150,5.0,10.0,86,0.00,,,0.09,0.000000,,2013-01-27 09:11:00,
2013-01-26 23:21:00,71.0,67.0,-100.00,SSE,150,5.0,10.0,86,0.00,,,0.09,0.000000,,2013-01-27 09:21:00,
2013-01-26 23:31:00,71.0,67.0,-100.00,SSE,150,5.0,10.0,86,0.00,,,0.09,0.000000,,2013-01-27 09:31:00,
2013-01-26 23:52:00,70.0,66.0,-100.00,SE,143,4.0,11.0,86,0.00,,,0.09,0.000000,,2013-01-27 09:52:00,